[[{"header":{"parameterUnit":"m.s-1","parameterCategory":1,"la1":30.2991,"la2":30.254,"lo1":-89.0895,"lo2":-89.0444,"dy":0.0017,"dx":0.0017,"nx":28,"ny":28,"refTime":"2025-02-12T09:00:00:Z","depth":0,"parameterNumber":2,"parameterNumberName":"U-component_of_WINDS"},"data":[0,0,0,0,0,0,0,0,0,0,0,0,0,0,0,0,0,0,0,0,0,0,0,0,0,0,0,0,0,0,0,0,0,0,0,0,0,0,0,0,0,0,0,0,0,0,0,0,0,0,0,0,0,0,0,0,0,0,0.331,0.331,0,0.3337,0.3337,0.3337,0.3319,0.3318,0.3317,0.3316,0.3344,0.3346,0.3347,0,0,0,0,0,0,0,0,0,0,0,0,0,0.3243,0.3245,0.331,0.331,0.3311,0.3337,0.3337,0.3338,0.3319,0.3318,0.3317,0.3316,0.3344,0.3346,0.3347,0,0,0,0,0,0,0,0,0,0,0,0,0,0.3271,0.3245,0.331,0.3305,0.3304,0.3337,0.3337,0.3338,0.3319,0.3318,0.3317,0.3316,0.3343,0.3345,0.3348,0.3387,0,0,0.3355,0.3356,0,0,0,0,0,0,0,0,0.327,0.3274,0.3305,0.3305,0.3305,0.3323,0.3324,0.3354,0.332,0.3314,0.3316,0.3315,0.3338,0.3341,0.3349,0.3388,0.3389,0.3355,0.3356,0.3357,0.3358,0,0,0,0,0,0,0,0.3268,0.3273,0.3321,0.3306,0.3306,0.3301,0.3304,0.3329,0.3333,0.3314,0.3313,0.3316,0.3338,0.3347,0.3349,0.339,0.3355,0.3357,0.3358,0.3359,0.3463,0.3464,0,0,0,0,0,0,0.3266,0.3271,0.332,0.3322,0.3284,0.3303,0.3306,0.3319,0.3332,0.3333,0.3317,0.3315,0.3343,0.3347,0.335,0.3397,0.3357,0.3359,0.3361,0.3462,0.3463,0.3465,0,0,0,0,0,0,0.3265,0.3271,0.3319,0.3296,0.3302,0.3306,0.332,0.332,0.3328,0.3335,0.3335,0.3325,0.3342,0.3347,0.3378,0.3398,0.336,0.3362,0.346,0.3462,0.3464,0.3492,0,0,0,0,0,0,0.3263,0.3271,0.3285,0.3296,0.3303,0.3346,0.3321,0.3321,0.3332,0.333,0.3342,0.3343,0.3342,0.3375,0.338,0.34,0.3364,0.3458,0.3461,0.3463,0.3489,0.3495,0.3499,0,0,0,0,0,0.3261,0.3292,0.3286,0.3292,0.3322,0.3347,0.3351,0.3348,0.3334,0.3349,0.3353,0.3343,0.3395,0.3378,0.3384,0.3405,0.3457,0.346,0.3463,0.3487,0.3493,0.3499,0,0,0,0,0,0,0.3284,0.3294,0.3287,0.3323,0.3334,0.3344,0.3363,0.3355,0.3371,0.3369,0.3365,0.3368,0.34,0.3406,0.3387,0.3444,0.3423,0.3428,0.3439,0.3446,0.3451,0.3449,0.3366,0,0,0,0,0,0.3293,0.3313,0.332,0.3351,0.3357,0.3359,0.337,0.3367,0.3379,0.3384,0.339,0.3402,0.3421,0.3433,0.3451,0.3489,0.3492,0.3507,0.3512,0.3516,0.3521,0.3542,0.3548,0.3475,0.3475,0.3475,0,0,0.3312,0.332,0.3333,0.3356,0.3364,0.3385,0.3363,0.3386,0.3402,0.3387,0.3417,0.3422,0.3435,0.347,0.3486,0.3476,0.3541,0.352,0.3524,0.3526,0.3545,0.3552,0.3559,0.3477,0.3477,0.3476,0,0,0.3358,0.3365,0.3392,0.3401,0.3414,0.3415,0.3422,0.3433,0.3436,0.3465,0.3455,0.3473,0.3506,0.3516,0.3525,0.3574,0.3566,0.358,0.3607,0.3627,0.3633,0.3638,0.3656,0.3663,0.3584,0.3584,0.3584,0,0.338,0.3411,0.3407,0.3431,0.3441,0.3429,0.3456,0.3465,0.3483,0.3491,0.3479,0.352,0.3528,0.3565,0.3577,0.3585,0.3592,0.3579,0.3633,0.3638,0.3642,0.366,0.3666,0.3586,0.3586,0.3585,0.3585,0,0.3438,0.3459,0.3479,0.3498,0.351,0.3536,0.3536,0.3549,0.3545,0.3547,0.3578,0.3587,0.3606,0.3615,0.3611,0.3651,0.3645,0.3633,0.3612,0.3651,0.3667,0.3674,0.3588,0.3588,0.3587,0.3587,0,0,0.3499,0.3514,0.3522,0.353,0.3544,0.356,0.3585,0.3604,0.3616,0.3629,0.365,0.3678,0.3667,0.3677,0.3674,0.3692,0.3731,0.3678,0.3678,0.3688,0.3777,0.3787,0.3795,0.3725,0.3727,0.3728,0.3777,0,0.3546,0.3589,0.3586,0.3627,0.3648,0.3636,0.3658,0.3668,0.3671,0.3689,0.3692,0.3712,0.3695,0.3702,0.3719,0.3723,0.3749,0.3719,0.3745,0.3746,0.3743,0.3803,0.3813,0.3859,0.3783,0.3784,0.3785,0,0.3606,0.3621,0.3665,0.3675,0.3684,0.3703,0.3721,0.3737,0.3749,0.375,0.3762,0.3756,0.3781,0.3759,0.3794,0.3774,0.3784,0.3788,0.379,0.3793,0.3768,0.3808,0.3873,0.388,0.3794,0.3794,0.3793,0,0.3647,0.3678,0.3708,0.3716,0.3729,0.3743,0.3749,0.376,0.3772,0.3787,0.3794,0.3812,0.3822,0.3836,0.3835,0.3819,0.3871,0.3849,0.3872,0.3872,0.3884,0.3884,0.3953,0.389,0.389,0.389,0.3889,0,0.37,0.3727,0.3727,0.3745,0.3775,0.3772,0.3802,0.3806,0.3816,0.3835,0.3826,0.3844,0.3841,0.386,0.3859,0.3888,0.3893,0.3894,0.3894,0.3896,0.3896,0.3903,0.39,0.3891,0.3891,0.3891,0.389,0,0.3751,0.3752,0.3784,0.3794,0.3797,0.3819,0.3827,0.3845,0.3847,0.3871,0.3877,0.388,0.3901,0.3901,0.3926,0.3925,0.3961,0.3957,0.3957,0.3957,0.3981,0.3979,0.4057,0.4068,0.3998,0.3998,0.3999,0,0.3785,0.3805,0.3818,0.383,0.3837,0.3857,0.3869,0.3866,0.3879,0.3895,0.391,0.3931,0.3947,0.3981,0.3986,0.4004,0.4001,0.4027,0.4003,0.4004,0.4002,0.4001,0.4003,0.4032,0.4033,0.4033,0.4034,0,0.3845,0.3845,0.3862,0.3881,0.3895,0.3909,0.3922,0.3933,0.3931,0.3946,0.3968,0.398,0.4005,0.4026,0.4043,0.405,0.4042,0.4041,0.4048,0.405,0.4049,0.4051,0.3971,0.4039,0.4039,0.4038,0.4038,0.4038,0.3889,0.3907,0.3919,0.3939,0.3948,0.3961,0.3978,0.3982,0.4,0.402,0.4017,0.4042,0.4053,0.4076,0.4084,0.4103,0.4094,0.4104,0.4106,0.4109,0.4112,0.4046,0.4106,0.4106,0.4106,0.4106,0.4106,0,0.3949,0.3956,0.3975,0.3994,0.4009,0.4,0.4014,0.4028,0.405,0.4061,0.4077,0.4102,0.4122,0.4128,0.4147,0.4161,0.4158,0.4167,0.4166,0.4168,0.4118,0.4111,0.4169,0.4169,0.4169,0.4169,0.4169,0.4169,0.3982,0.4013,0.4014,0.4048,0.4055,0.4079,0.4088,0.4099,0.4109,0.4137,0.4154,0.4157,0.4167,0.4187,0.4204,0.4206,0.4213,0.4224,0.4223,0.4177,0.4171,0.4165,0.4158,0.4225,0.4225,0.4271,0.4272,0.4272]},{"header":{"parameterUnit":"m.s-1","parameterCategory":1,"la1":30.2991,"la2":30.254,"lo1":-89.0895,"lo2":-89.0444,"dy":0.0017,"dx":0.0017,"nx":28,"ny":28,"refTime":"2025-02-12T09:00:00:Z","depth":0,"parameterNumber":3,"parameterNumberName":"V-component_of_WINDS"},"data":[0,0,0,0,0,0,0,0,0,0,0,0,0,0,0,0,0,0,0,0,0,0,0,0,0,0,0,0,0,0,0,0,0,0,0,0,0,0,0,0,0,0,0,0,0,0,0,0,0,0,0,0,0,0,0,0,0,0,4.5713,4.5715,0,4.5884,4.5886,4.5888,4.5901,4.5899,4.5897,4.5895,4.607,4.6076,4.6082,0,0,0,0,0,0,0,0,0,0,0,0,0,4.5396,4.5401,4.5712,4.5715,4.5717,4.5883,4.5886,4.5888,4.5901,4.5899,4.5897,4.5895,4.6067,4.6075,4.6083,0,0,0,0,0,0,0,0,0,0,0,0,0,4.5547,4.5403,4.5712,4.5743,4.5748,4.5883,4.5886,4.5889,4.5902,4.5899,4.5896,4.5894,4.6065,4.6074,4.6084,4.6199,0,0,4.6113,4.6117,0,0,0,0,0,0,0,0,4.5538,4.5558,4.5737,4.5742,4.5747,4.5868,4.5838,4.5993,4.5903,4.5843,4.5895,4.5892,4.6005,4.6019,4.6057,4.6207,4.6214,4.6114,4.6119,4.6124,4.6126,0,0,0,0,0,0,0,4.5528,4.5551,4.578,4.5739,4.5746,4.5749,4.5767,4.5867,4.5938,4.5848,4.585,4.587,4.6007,4.6048,4.6061,4.6217,4.6113,4.6122,4.6128,4.6132,4.647,4.6473,0,0,0,0,0,0,4.5511,4.5542,4.5775,4.5785,4.5633,4.5757,4.5777,4.5832,4.5937,4.595,4.5872,4.587,4.6033,4.605,4.6068,4.6211,4.6124,4.6132,4.6138,4.6467,4.6471,4.6475,0,0,0,0,0,0,4.5504,4.5532,4.5768,4.5664,4.5695,4.5765,4.5827,4.5837,4.5878,4.5955,4.5967,4.5901,4.6032,4.6054,4.6166,4.6217,4.6137,4.6145,4.6463,4.6468,4.6473,4.6496,0,0,0,0,0,0,4.5495,4.5529,4.5574,4.5665,4.57,4.5864,4.583,4.5842,4.5895,4.5893,4.5985,4.5998,4.6031,4.6152,4.6176,4.6228,4.6153,4.6459,4.6465,4.6471,4.6491,4.6501,4.651,0,0,0,0,0,4.5484,4.5573,4.5576,4.5604,4.5758,4.5867,4.5887,4.5924,4.5899,4.5944,4.5993,4.5995,4.6207,4.6163,4.619,4.6246,4.6456,4.6464,4.6471,4.6487,4.6499,4.651,0,0,0,0,0,0,4.5486,4.5586,4.559,4.5712,4.5781,4.5869,4.5928,4.5935,4.6013,4.6008,4.605,4.6071,4.6182,4.6225,4.6175,4.6364,4.6329,4.6342,4.6332,4.6344,4.6353,4.6341,4.6161,0,0,0,0,0,4.5501,4.5582,4.5664,4.5764,4.5798,4.5857,4.5906,4.5928,4.6001,4.6031,4.6088,4.6158,4.6241,4.6295,4.6375,4.6497,4.6518,4.6549,4.6558,4.6565,4.6577,4.6646,4.6661,4.6499,4.6499,4.6498,0,0,4.5532,4.5596,4.5645,4.5766,4.5822,4.5905,4.5881,4.597,4.6032,4.6044,4.6154,4.6198,4.628,4.6398,4.6452,4.6437,4.6626,4.6574,4.658,4.6588,4.6655,4.667,4.6684,4.6504,4.6503,4.6502,0,0,4.5631,4.5688,4.5778,4.5834,4.592,4.5958,4.598,4.6067,4.6097,4.6208,4.6219,4.6293,4.6434,4.6492,4.654,4.6661,4.6666,4.6686,4.6735,4.6802,4.6815,4.6826,4.6871,4.6887,4.6697,4.6697,4.6697,0,4.5659,4.5785,4.5822,4.5912,4.5965,4.5979,4.6071,4.6124,4.623,4.6267,4.6248,4.6426,4.6481,4.6614,4.6644,4.6681,4.6708,4.6677,4.681,4.6822,4.6833,4.6877,4.6893,4.6699,4.6698,4.6698,4.6698,0,4.5816,4.5903,4.5965,4.6069,4.6129,4.6218,4.6269,4.6325,4.6342,4.6382,4.6495,4.6562,4.6657,4.6689,4.6706,4.6825,4.6813,4.6801,4.6767,4.685,4.6892,4.6908,4.6702,4.6701,4.67,4.67,0,0,4.5923,4.6047,4.6069,4.6117,4.6212,4.628,4.637,4.6463,4.6511,4.6583,4.6661,4.6779,4.677,4.6824,4.6847,4.6906,4.7,4.6888,4.689,4.6908,4.7136,4.7145,4.7164,4.7002,4.7006,4.7008,4.7129,0,4.6035,4.6197,4.6233,4.6372,4.6453,4.6468,4.6547,4.6613,4.6653,4.6728,4.6771,4.6856,4.6835,4.6869,4.6927,4.6976,4.7046,4.6967,4.7075,4.7079,4.7057,4.7185,4.7196,4.7307,4.7146,4.7148,4.715,0,4.6188,4.6265,4.6413,4.6498,4.6533,4.6604,4.6692,4.6763,4.6839,4.6863,4.6924,4.6942,4.7036,4.6995,4.7126,4.7072,4.7118,4.7148,4.7153,4.7167,4.7121,4.7204,4.7343,4.7361,4.7176,4.7174,4.7172,0,4.6253,4.6394,4.6501,4.6541,4.6643,4.6692,4.6736,4.6809,4.6863,4.694,4.6976,4.7062,4.711,4.7176,4.7216,4.7183,4.7344,4.7307,4.7369,4.7368,4.7404,4.7401,4.7554,4.743,4.7429,4.7429,4.7429,0,4.6376,4.6466,4.6532,4.6598,4.67,4.6739,4.6839,4.6883,4.6948,4.7022,4.7039,4.7109,4.7157,4.7233,4.7265,4.7369,4.739,4.7413,4.7421,4.7413,4.7411,4.7446,4.744,4.7434,4.7433,4.7432,4.7431,0,4.6467,4.6515,4.6633,4.672,4.6743,4.6815,4.6889,4.6953,4.6992,4.7087,4.7111,4.7174,4.7265,4.7311,4.7423,4.7445,4.7563,4.7565,4.7538,4.7542,4.7601,4.7596,4.7784,4.7811,4.7666,4.7668,4.7669,0,4.6543,4.6613,4.6708,4.6759,4.6805,4.6888,4.6943,4.6984,4.7041,4.7133,4.7186,4.7278,4.7354,4.7498,4.7553,4.764,4.7645,4.7705,4.7659,4.7649,4.7649,4.7645,4.7653,4.7714,4.7716,4.7717,4.7718,0,4.6674,4.6694,4.6774,4.6862,4.6927,4.6998,4.7068,4.7109,4.7162,4.7224,4.7318,4.7377,4.7492,4.7584,4.7674,4.772,4.7728,4.7732,4.7751,4.7745,4.7727,4.7739,4.7563,4.7728,4.7727,4.7726,4.7725,4.7725,4.6762,4.6825,4.6902,4.699,4.7047,4.7112,4.7177,4.7225,4.7304,4.7402,4.742,4.752,4.7594,4.7717,4.7765,4.7843,4.783,4.7858,4.7865,4.7872,4.7876,4.7713,4.7859,4.7859,4.7859,4.7859,4.7859,0,4.6895,4.6945,4.7025,4.7123,4.7192,4.7194,4.7271,4.7329,4.7416,4.7485,4.7559,4.7667,4.7755,4.7817,4.7907,4.7958,4.7964,4.7981,4.7979,4.7989,4.7881,4.7856,4.7974,4.7974,4.7974,4.7974,4.7974,4.7974,4.6973,4.7081,4.711,4.7246,4.7295,4.7393,4.7437,4.7497,4.7553,4.7672,4.7746,4.7786,4.7852,4.7947,4.8028,4.8044,4.8078,4.8094,4.8111,4.8009,4.7997,4.7985,4.7962,4.8101,4.8101,4.8213,4.8214,4.8215]}]]